| time (UTC) | temp F | wind direction | speed MPH | gust MPH | rain 1hr in | rain 24hr in | rain mn in | humidity % | barometer mb |
| 20260904221607 | 72 | 324 | 12.0 | 20.0 | 0.00 | 0.00 | 0.00 | 34 | 1012.4 |
| 20260904214552 | 72 | 325 | 11.0 | 18.0 | 0.00 | 0.00 | 0.00 | 35 | 1012.1 |
| 20260904213052 | 71 | 282 | 10.0 | 22.0 | 0.00 | 0.00 | 0.00 | 36 | 1012.1 |
| 20260904211558 | 71 | 327 | 13.0 | 20.0 | 0.00 | 0.00 | 0.00 | 35 | 1011.8 |
| 20260904210055 | 71 | 284 | 13.0 | 21.0 | 0.00 | 0.00 | 0.00 | 36 | 1011.7 |
| 20260904204551 | 70 | 311 | 13.0 | 22.0 | 0.00 | 0.00 | 0.00 | 36 | 1011.6 |
| 20260904203059 | 71 | 287 | 11.0 | 25.0 | 0.00 | 0.00 | 0.00 | 37 | 1011.3 |
| 20260904201614 | 70 | 312 | 13.0 | 23.0 | 0.00 | 0.00 | 0.00 | 38 | 1011.2 |
| 20260904200121 | 70 | 294 | 10.0 | 21.0 | 0.00 | 0.00 | 0.00 | 37 | 1011.0 |
| 20260904194610 | 70 | 311 | 10.0 | 19.0 | 0.00 | 0.00 | 0.00 | 39 | 1010.8 |
| 20260904193106 | 70 | 286 | 11.0 | 21.0 | 0.00 | 0.00 | 0.00 | 38 | 1010.5 |
| 20260904191556 | 70 | 282 | 10.0 | 16.0 | 0.00 | 0.00 | 0.00 | 39 | 1010.1 |
| 20260904190110 | 67 | 315 | 11.0 | 20.0 | 0.00 | 0.00 | 0.00 | 41 | 1009.9 |
| 20260904184600 | 68 | 293 | 11.0 | 19.0 | 0.00 | 0.00 | 0.00 | 40 | 1010.0 |
| 20260904183053 | 67 | 286 | 9.0 | 17.0 | 0.00 | 0.00 | 0.00 | 42 | 1009.9 |
| 20260904181550 | 65 | 289 | 10.0 | 15.0 | 0.00 | 0.00 | 0.00 | 47 | 1009.7 |
| 20260904180059 | 63 | 285 | 8.0 | 13.0 | 0.00 | 0.00 | 0.00 | 51 | 1009.7 |
| 20260904174554 | 61 | 281 | 7.0 | 13.0 | 0.00 | 0.00 | 0.00 | 54 | 1009.6 |
| 20260904173130 | 61 | 288 | 8.0 | 13.0 | 0.00 | 0.00 | 0.00 | 53 | 1009.5 |
| 20260904171608 | 61 | 279 | 4.0 | 13.0 | 0.00 | 0.00 | 0.00 | 55 | 1009.3 |
| 20260904170055 | 62 | 273 | 4.0 | 8.0 | 0.00 | 0.00 | 0.00 | 50 | 1009.1 |
| 20260904164557 | 61 | 278 | 3.0 | 7.0 | 0.00 | 0.00 | 0.00 | 49 | 1008.7 |
| 20260904163100 | 61 | 273 | 2.0 | 6.0 | 0.00 | 0.00 | 0.00 | 50 | 1008.8 |
| 20260904161555 | 60 | 271 | 0.0 | 4.0 | 0.00 | 0.00 | 0.00 | 52 | 1008.7 |
| 20260904160054 | 60 | 0 | 2.0 | 9.0 | 0.00 | 0.00 | 0.00 | 53 | 1008.6 |
| 20260904154552 | 59 | 267 | 2.0 | 10.0 | 0.00 | 0.00 | 0.00 | 55 | 1008.6 |
| 20260904153102 | 58 | 262 | 8.0 | 15.0 | 0.00 | 0.00 | 0.00 | 56 | 1008.5 |
| 20260904151606 | 63 | 179 | 6.0 | 12.0 | 0.00 | 0.00 | 0.00 | 45 | 1008.0 |
| 20260904150115 | 62 | 74 | 2.0 | 7.0 | 0.00 | 0.00 | 0.00 | 48 | 1007.6 |
| 20260904144602 | 62 | 71 | 7.0 | 11.0 | 0.00 | 0.00 | 0.00 | 47 | 1007.1 |
| 20260904143108 | 62 | 81 | 7.0 | 12.0 | 0.00 | 0.00 | 0.00 | 47 | 1007.0 |
| 20260904141614 | 61 | 51 | 4.0 | 9.0 | 0.00 | 0.00 | 0.00 | 50 | 1007.1 |
| 20260904140107 | 59 | 58 | 10.0 | 13.0 | 0.00 | 0.00 | 0.00 | 53 | 1006.4 |
| 20260904134559 | 57 | 51 | 1.0 | 9.0 | 0.00 | 0.00 | 0.00 | 54 | 1007.3 |
| 20260904133057 | 55 | 38 | 2.0 | 9.0 | 0.00 | 0.00 | 0.00 | 60 | 1007.1 |
| 20260904131557 | 55 | 39 | 5.0 | 8.0 | 0.00 | 0.00 | 0.00 | 59 | 1006.9 |
| 20260904130106 | 55 | 39 | 3.0 | 6.0 | 0.00 | 0.00 | 0.00 | 59 | 1007.2 |
| 20260904124558 | 54 | 0 | 0.0 | 8.0 | 0.00 | 0.00 | 0.00 | 59 | 1006.9 |
| 20260904123057 | 53 | 39 | 0.0 | 2.0 | 0.00 | 0.00 | 0.00 | 61 | 1006.5 |
| 20260904121556 | 54 | 39 | 3.0 | 5.0 | 0.00 | 0.00 | 0.00 | 61 | 1006.4 |
| 20260904120108 | 55 | 39 | 3.0 | 10.0 | 0.00 | 0.00 | 0.00 | 59 | 1006.6 |
| 20260904114559 | 55 | 40 | 6.0 | 10.0 | 0.00 | 0.01 | 0.00 | 58 | 1006.7 |
| 20260904113055 | 55 | 39 | 6.0 | 10.0 | 0.00 | 0.01 | 0.00 | 58 | 1006.6 |
| 20260904111554 | 56 | 42 | 7.0 | 11.0 | 0.00 | 0.01 | 0.00 | 57 | 1006.7 |
| 20260904110050 | 56 | 46 | 8.0 | 12.0 | 0.00 | 0.01 | 0.00 | 56 | 1006.7 |
| 20260904104559 | 56 | 52 | 9.0 | 13.0 | 0.00 | 0.01 | 0.00 | 56 | 1007.0 |
| 20260904103054 | 56 | 53 | 10.0 | 15.0 | 0.00 | 0.01 | 0.00 | 55 | 1007.1 |
| 20260904101553 | 55 | 44 | 9.0 | 12.0 | 0.00 | 0.01 | 0.00 | 58 | 1007.2 |
| 20260904100058 | 53 | 5 | 3.0 | 6.0 | 0.00 | 0.01 | 0.00 | 64 | 1007.6 |
| 20260904094602 | 54 | 5 | 6.0 | 9.0 | 0.00 | 0.02 | 0.00 | 62 | 1007.5 |
| 20260904093103 | 53 | 349 | 4.0 | 8.0 | 0.00 | 0.02 | 0.00 | 66 | 1007.6 |
| 20260904091558 | 52 | 346 | 2.0 | 5.0 | 0.00 | 0.02 | 0.00 | 68 | 1007.8 |
| 20260904090058 | 50 | 346 | 2.0 | 4.0 | 0.00 | 0.02 | 0.00 | 71 | 1007.8 |
| 20260904084558 | 51 | 346 | 2.0 | 5.0 | 0.00 | 0.02 | 0.00 | 69 | 1007.9 |
| 20260904083056 | 52 | 346 | 4.0 | 6.0 | 0.00 | 0.02 | 0.00 | 69 | 1008.1 |
| 20260904081559 | 50 | 346 | 3.0 | 5.0 | 0.00 | 0.02 | 0.00 | 76 | 1008.1 |
| 20260904080058 | 50 | 346 | 3.0 | 5.0 | 0.00 | 0.02 | 0.00 | 76 | 1008.2 |
| 20260904074556 | 50 | 346 | 3.0 | 4.0 | 0.00 | 0.03 | 0.00 | 76 | 1008.5 |
| 20260904073052 | 51 | 346 | 3.0 | 4.0 | 0.00 | 0.03 | 0.00 | 74 | 1008.6 |
| 20260904071601 | 50 | 346 | 2.0 | 3.0 | 0.00 | 0.03 | 0.00 | 74 | 1008.9 |
| 20260904070059 | 51 | 0 | 0.0 | 0.0 | 0.00 | 0.03 | 0.00 | 73 | 1009.0 |
| 20260904064554 | 53 | 0 | 0.0 | 4.0 | 0.00 | 0.04 | 0.00 | 70 | 1009.0 |
| 20260904063056 | 54 | 346 | 3.0 | 5.0 | 0.00 | 0.04 | 0.00 | 69 | 1008.9 |
| 20260904061554 | 54 | 346 | 1.0 | 4.0 | 0.00 | 0.04 | 0.00 | 68 | 1009.1 |
| 20260904060054 | 55 | 0 | 0.0 | 4.0 | 0.00 | 0.04 | 0.00 | 66 | 1009.3 |
| 20260904054552 | 53 | 0 | 1.0 | 4.0 | 0.00 | 0.05 | 0.04 | 70 | 1009.4 |
| 20260904053101 | 53 | 346 | 0.0 | 0.0 | 0.00 | 0.05 | 0.04 | 68 | 1009.6 |
| 20260904051605 | 55 | 0 | 0.0 | 4.0 | 0.00 | 0.05 | 0.04 | 66 | 1009.9 |
| 20260904050106 | 55 | 0 | 0.0 | 0.0 | 0.00 | 0.05 | 0.04 | 63 | 1010.1 |
| 20260904044601 | 55 | 0 | 0.0 | 5.0 | 0.00 | 0.06 | 0.04 | 63 | 1010.1 |
| 20260904043055 | 55 | 0 | 0.0 | 4.0 | 0.00 | 0.06 | 0.04 | 65 | 1009.9 |
| 20260904041600 | 55 | 335 | 3.0 | 6.0 | 0.00 | 0.06 | 0.04 | 63 | 1009.6 |
| 20260904040104 | 53 | 335 | 3.0 | 5.0 | 0.00 | 0.06 | 0.04 | 68 | 1009.7 |
| 20260904034556 | 51 | 335 | 2.0 | 4.0 | 0.00 | 0.07 | 0.04 | 72 | 1009.7 |
| 20260904033055 | 52 | 335 | 2.0 | 4.0 | 0.00 | 0.07 | 0.04 | 70 | 1009.9 |
| 20260904031552 | 52 | 335 | 3.0 | 4.0 | 0.00 | 0.07 | 0.04 | 69 | 1009.7 |
| 20260904030059 | 54 | 335 | 1.0 | 3.0 | 0.00 | 0.07 | 0.04 | 65 | 1009.9 |
| 20260904024601 | 55 | 335 | 2.0 | 4.0 | 0.00 | 0.08 | 0.04 | 63 | 1009.6 |
| 20260904023101 | 54 | 335 | 2.0 | 4.0 | 0.00 | 0.08 | 0.04 | 66 | 1009.3 |
| 20260904021608 | 56 | 335 | 1.0 | 3.0 | 0.00 | 0.08 | 0.04 | 61 | 1009.1 |
| 20260904020105 | 59 | 335 | 2.0 | 3.0 | 0.00 | 0.08 | 0.04 | 55 | 1008.8 |
| 20260904014602 | 63 | 335 | 1.0 | 8.0 | 0.00 | 0.10 | 0.04 | 47 | 1008.8 |
| 20260904013059 | 66 | 329 | 3.0 | 9.0 | 0.00 | 0.10 | 0.04 | 42 | 1008.9 |
| 20260904011600 | 68 | 334 | 4.0 | 9.0 | 0.00 | 0.10 | 0.04 | 39 | 1008.9 |
| 20260904010055 | 70 | 322 | 5.0 | 10.0 | 0.00 | 0.10 | 0.04 | 37 | 1008.9 |
| 20260904004600 | 70 | 319 | 5.0 | 10.0 | 0.00 | 0.12 | 0.04 | 37 | 1008.9 |
| 20260904003054 | 71 | 311 | 5.0 | 12.0 | 0.00 | 0.12 | 0.04 | 35 | 1008.7 |
| 20260904001558 | 71 | 308 | 7.0 | 14.0 | 0.00 | 0.12 | 0.04 | 35 | 1008.7 |
| 20260904000120 | 72 | 307 | 10.0 | 16.0 | 0.00 | 0.12 | 0.04 | 34 | 1008.6 |
| 20260903234556 | 72 | 296 | 10.0 | 21.0 | 0.00 | 0.16 | 0.04 | 34 | 1008.2 |
| 20260903233056 | 72 | 294 | 10.0 | 20.0 | 0.00 | 0.16 | 0.04 | 34 | 1008.2 |
| 20260903231602 | 73 | 302 | 5.0 | 15.0 | 0.00 | 0.16 | 0.04 | 34 | 1008.2 |
| 20260903230058 | 73 | 263 | 10.0 | 16.0 | 0.00 | 0.16 | 0.04 | 34 | 1008.2 |
| 20260903224610 | 74 | 250 | 7.0 | 16.0 | 0.00 | 0.19 | 0.04 | 34 | 1008.2 |
| 20260903223100 | 75 | 255 | 10.0 | 18.0 | 0.00 | 0.19 | 0.04 | 33 | 1007.9 |